Regional Weather Roundup
Issued by NWS

Home | Current Version | Previous Version | Graphics & Text | Print | Product List | Glossary On
Versions: 1 2 3 4 5 6 7 8 9 10 11 12 13 14 15 16 17 18 19 20 21 22 23 24 25 26 27 28 29 30 31 32 33 34 35 36 37 38 39 40 41 42 43 44 45 46 47 48 49 50
000
ASUS44 KMEG 251910
RWRTN
TENNESSEE HOURLY STATE WEATHER ROUNDUP
NATIONAL WEATHER SERVICE MEMPHIS TN
200 PM CDT WED MAY 25 2016

TNZ002-004-019-021-049-052-054-088>092-252000-
WEST TENNESSEE

CITY           SKY/WX    TMP DP  RH WIND       PRES   REMARKS
MEMPHIS INTL   CLOUDY    83  72  69 SW9       30.09F
NWS MEMPHIS      N/A     83 N/A N/A MISG        N/A
JACKSON        CLOUDY    82  71  69 SW9       30.09F
DYERSBURG      CLOUDY    79  70  73 W8        30.09R
UNION CITY     SUNNY     75  73  94 W6        30.08S
PARIS          PTSUNNY   75  70  83 W6        30.10R
LEXINGTON      PTSUNNY   84  64  51 S10       30.09F
$$

TNZ008-025-027-028-033-062-065-066-252000-
NORTH MIDDLE TENNESSEE

CITY           SKY/WX    TMP DP  RH WIND       PRES   REMARKS
NASHVILLE      CLOUDY    85  64  49 S13G18    30.13F
CLARKSVILLE    HVY RAIN  72  68  87 NE6       30.10S FOG
SMYRNA         MOSUNNY   85  67  54 S8        30.14F
COOKEVILLE     MOSUNNY   79  64  61 S7        30.18F
CROSSVILLE     CLOUDY    75  59  57 VRB5      30.24F
$$

TNZ061-075-076-078-094-096-097-252000-
SOUTH MIDDLE TENNESSEE

CITY           SKY/WX    TMP DP  RH WIND       PRES   REMARKS
FAYETTEVILLE   MOSUNNY   84  61  45 S8G16     30.17S
TULLAHOMA      MOSUNNY   84  61  45 S8        30.18F
WINCHESTER     MOSUNNY   84  61  45 S10       30.18F
MCMINNVILLE    SUNNY     84  63  48 S8        30.18F
COLUMBIA       MOSUNNY   86  70  58 S15       30.11F HX  90
SHELBYVILLE    MOSUNNY   88  64  45 S10       30.16F
$$

TNZ017-018-042-046-047-252000-
NORTHEAST TENNESSEE

CITY           SKY/WX    TMP DP  RH WIND       PRES   REMARKS
TRI CITIES     MOSUNNY   82  56  40 SW12      30.22F
$$

TNZ012-013-036-069-073-074-252000-
CENTRAL EAST TENNESSEE

CITY           SKY/WX    TMP DP  RH WIND       PRES   REMARKS
KNOXVILLE      CLOUDY    84  57  39 SW9       30.19F
OAK RIDGE      MOSUNNY   82  59  45 VRB5      30.22F
GATLINBURG     SUNNY     84  55  37 NW9       30.19F
$$

TNZ083-085-099-252000-
SOUTHEAST TENNESSEE

CITY           SKY/WX    TMP DP  RH WIND       PRES   REMARKS
CHATTANOOGA    PTSUNNY   86  57  37 S10G17    30.18F
$$

SKY/WX REPORTED AS FAIR MEANS FEW OR NO CLOUDS BELOW
12 THOUSAND FEET.





USA.gov is the U.S. government's official web portal to all federal, state and local government web resources and services.